Year,Month,Day,Hour,Minute,Value (Times are PST for temperature in C)
2016,04,27,00,00,6.30
2016,04,27,00,01,6.40
2016,04,27,00,02,6.40
2016,04,27,00,03,6.40
2016,04,27,00,04,6.40
2016,04,27,00,05,6.40
2016,04,27,00,06,6.40
2016,04,27,00,07,6.40
2016,04,27,00,08,6.40
2016,04,27,00,09,6.40
2016,04,27,00,10,6.40
2016,04,27,00,11,6.40
2016,04,27,00,12,6.50
2016,04,27,00,13,6.50
2016,04,27,00,14,6.50
2016,04,27,00,15,6.50
2016,04,27,00,16,6.50
2016,04,27,00,17,6.50
2016,04,27,00,18,6.60
2016,04,27,00,19,6.60
2016,04,27,00,20,6.60
2016,04,27,00,21,6.60
2016,04,27,00,22,6.60
2016,04,27,00,23,6.60
2016,04,27,00,24,6.60
2016,04,27,00,25,6.60
2016,04,27,00,26,6.60
2016,04,27,00,27,6.60
2016,04,27,00,28,6.60
2016,04,27,00,29,6.70
2016,04,27,00,30,6.70
2016,04,27,00,31,6.70
2016,04,27,00,32,6.70
2016,04,27,00,33,6.70
2016,04,27,00,34,6.70
2016,04,27,00,35,6.70
2016,04,27,00,36,6.70
2016,04,27,00,37,6.70
2016,04,27,00,38,6.70
2016,04,27,00,39,6.80
2016,04,27,00,40,6.80
2016,04,27,00,41,6.80
2016,04,27,00,42,6.80
2016,04,27,00,43,6.80
2016,04,27,00,44,6.90
2016,04,27,00,45,6.90
2016,04,27,00,46,6.90
2016,04,27,00,47,6.90
2016,04,27,00,48,6.90
2016,04,27,00,49,6.90
2016,04,27,00,50,6.90
2016,04,27,00,51,6.90
2016,04,27,00,52,6.90
2016,04,27,00,53,6.90
2016,04,27,00,54,7.00
2016,04,27,00,55,7.00
2016,04,27,00,56,7.00
2016,04,27,00,57,7.00
2016,04,27,00,58,7.00
2016,04,27,00,59,7.00
2016,04,27,01,00,7.00
2016,04,27,01,01,7.00
2016,04,27,01,02,7.00
2016,04,27,01,03,7.00
2016,04,27,01,04,7.00
2016,04,27,01,05,7.10
2016,04,27,01,06,7.10
2016,04,27,01,07,7.10
2016,04,27,01,08,7.20
2016,04,27,01,09,7.20
2016,04,27,01,10,7.30
2016,04,27,01,11,7.30
2016,04,27,01,12,7.30
2016,04,27,01,13,7.30
2016,04,27,01,14,7.40
2016,04,27,01,15,7.40
2016,04,27,01,16,7.40
2016,04,27,01,17,7.40
2016,04,27,01,18,7.40
2016,04,27,01,19,7.40
2016,04,27,01,20,7.50
2016,04,27,01,21,7.60
2016,04,27,01,22,7.60
2016,04,27,01,23,7.70
2016,04,27,01,24,7.70
2016,04,27,01,25,7.70
2016,04,27,01,26,7.70
2016,04,27,01,27,7.70
2016,04,27,01,28,7.70
2016,04,27,01,29,7.80
2016,04,27,01,30,7.90
2016,04,27,01,31,7.90
2016,04,27,01,32,7.90
2016,04,27,01,33,7.90
2016,04,27,01,34,8.00
2016,04,27,01,35,8.00
2016,04,27,01,36,8.00
2016,04,27,01,37,8.00
2016,04,27,01,38,8.00
2016,04,27,01,39,8.00
2016,04,27,01,40,8.00
2016,04,27,01,41,8.10
2016,04,27,01,42,8.10
2016,04,27,01,43,8.20
2016,04,27,01,44,8.20
2016,04,27,01,45,8.30
2016,04,27,01,46,8.30
2016,04,27,01,47,8.30
2016,04,27,01,48,8.30
2016,04,27,01,49,8.30
2016,04,27,01,50,8.40
2016,04,27,01,51,8.40
2016,04,27,01,52,8.50
2016,04,27,01,53,8.60
2016,04,27,01,54,8.60
2016,04,27,01,55,8.60
2016,04,27,01,56,8.70
2016,04,27,01,57,8.70
2016,04,27,01,58,8.70
2016,04,27,01,59,8.70
2016,04,27,02,00,8.70
2016,04,27,02,01,8.70
2016,04,27,02,02,8.80
2016,04,27,02,03,8.80
2016,04,27,02,04,8.80
2016,04,27,02,05,8.90
2016,04,27,02,06,8.90
2016,04,27,02,07,9.00
2016,04,27,02,08,9.00
2016,04,27,02,09,9.00
2016,04,27,02,10,9.00
2016,04,27,02,11,9.00
2016,04,27,02,12,9.10
2016,04,27,02,13,9.10
2016,04,27,02,14,9.10
2016,04,27,02,15,9.20
2016,04,27,02,16,9.20
2016,04,27,02,17,9.20
2016,04,27,02,18,9.20
2016,04,27,02,19,9.30
2016,04,27,02,20,9.30
2016,04,27,02,21,9.30
2016,04,27,02,22,9.40
2016,04,27,02,23,9.40
2016,04,27,02,24,9.50
2016,04,27,02,25,9.50
2016,04,27,02,26,9.60
2016,04,27,02,27,9.60
2016,04,27,02,28,9.70
2016,04,27,02,29,9.70
2016,04,27,02,30,9.70
2016,04,27,02,31,9.70
2016,04,27,02,32,9.70
2016,04,27,02,33,9.70
2016,04,27,02,34,9.70
2016,04,27,02,35,9.70
2016,04,27,02,36,9.80
2016,04,27,02,37,9.80
2016,04,27,02,38,9.90
2016,04,27,02,39,9.90
2016,04,27,02,40,9.90
2016,04,27,02,41,10.00
2016,04,27,02,42,10.00
2016,04,27,02,43,10.10
2016,04,27,02,44,10.10
2016,04,27,02,45,10.20
2016,04,27,02,46,10.20
2016,04,27,02,47,10.20
2016,04,27,02,48,10.30
2016,04,27,02,49,10.30
2016,04,27,02,50,10.40
2016,04,27,02,51,10.40
2016,04,27,02,52,10.30
2016,04,27,02,53,10.40
2016,04,27,02,54,10.30
2016,04,27,02,55,10.30
2016,04,27,02,56,10.30
2016,04,27,02,57,10.40
2016,04,27,02,58,10.40
2016,04,27,02,59,10.40
2016,04,27,03,00,10.50
2016,04,27,03,01,10.50
2016,04,27,03,02,10.60
2016,04,27,03,03,10.60
2016,04,27,03,04,10.70
2016,04,27,03,05,10.70
2016,04,27,03,06,10.70
2016,04,27,03,07,10.70
2016,04,27,03,08,10.70
2016,04,27,03,09,10.70
2016,04,27,03,10,10.70
2016,04,27,03,11,10.80
2016,04,27,03,12,10.80
2016,04,27,03,13,10.80
2016,04,27,03,14,10.70
2016,04,27,03,15,10.70
2016,04,27,03,16,10.70
2016,04,27,03,17,10.70
2016,04,27,03,18,10.70
2016,04,27,03,19,10.70
2016,04,27,03,20,10.70
2016,04,27,03,21,10.70
2016,04,27,03,22,10.70
2016,04,27,03,23,10.70
2016,04,27,03,24,10.70
2016,04,27,03,25,10.70
2016,04,27,03,26,10.80
2016,04,27,03,27,10.80
2016,04,27,03,28,10.80
2016,04,27,03,29,10.80
2016,04,27,03,30,10.80
2016,04,27,03,31,10.90
2016,04,27,03,32,10.90
2016,04,27,03,33,11.00
2016,04,27,03,34,11.00
2016,04,27,03,35,11.10
2016,04,27,03,36,11.10
2016,04,27,03,37,11.10
2016,04,27,03,38,11.10
2016,04,27,03,39,11.20
2016,04,27,03,40,11.20
2016,04,27,03,41,11.20
2016,04,27,03,42,11.30
2016,04,27,03,43,11.30
2016,04,27,03,44,11.30
2016,04,27,03,45,11.30
2016,04,27,03,46,11.30
2016,04,27,03,47,11.30
2016,04,27,03,48,11.20
2016,04,27,03,49,11.20
2016,04,27,03,50,11.20
2016,04,27,03,51,11.20
2016,04,27,03,52,11.10
2016,04,27,03,53,11.20
2016,04,27,03,54,11.20
2016,04,27,03,55,11.20
2016,04,27,03,56,11.20
2016,04,27,03,57,11.30
2016,04,27,03,58,11.40
2016,04,27,03,59,11.40
2016,04,27,04,00,11.40
2016,04,27,04,01,11.50
2016,04,27,04,02,11.50
2016,04,27,04,03,11.60
2016,04,27,04,04,11.60
2016,04,27,04,05,11.60
2016,04,27,04,06,11.60
2016,04,27,04,07,11.60
2016,04,27,04,08,11.70
2016,04,27,04,09,11.60
2016,04,27,04,10,11.60
2016,04,27,04,11,11.60
2016,04,27,04,12,11.50
2016,04,27,04,13,11.50
2016,04,27,04,14,11.50
2016,04,27,04,15,11.50
2016,04,27,04,16,11.50
2016,04,27,04,17,11.50
2016,04,27,04,18,11.50
2016,04,27,04,19,11.50
2016,04,27,04,20,11.50
2016,04,27,04,21,11.50
2016,04,27,04,22,11.50
2016,04,27,04,23,11.60
2016,04,27,04,24,11.60
2016,04,27,04,25,11.70
2016,04,27,04,26,11.70
2016,04,27,04,27,11.70
2016,04,27,04,28,11.70
2016,04,27,04,29,11.80
2016,04,27,04,30,11.80
2016,04,27,04,31,11.90
2016,04,27,04,32,11.90
2016,04,27,04,33,11.90
2016,04,27,04,34,12.00
2016,04,27,04,35,12.10
2016,04,27,04,36,12.10
2016,04,27,04,37,12.10
2016,04,27,04,38,12.10
2016,04,27,04,39,12.20
2016,04,27,04,40,12.30
2016,04,27,04,41,12.30
2016,04,27,04,42,12.40
2016,04,27,04,43,12.40
2016,04,27,04,44,12.30
2016,04,27,04,45,12.20
2016,04,27,04,46,12.10
2016,04,27,04,47,12.10
2016,04,27,04,48,12.10
2016,04,27,04,49,12.10
2016,04,27,04,50,12.10
2016,04,27,04,51,12.10
2016,04,27,04,52,12.10
2016,04,27,04,53,12.10
2016,04,27,04,54,12.20
2016,04,27,04,55,12.20
2016,04,27,04,56,12.20
2016,04,27,04,57,12.10
2016,04,27,04,58,12.10
2016,04,27,04,59,12.10
2016,04,27,05,00,12.10
2016,04,27,05,01,12.10
2016,04,27,05,02,12.10
2016,04,27,05,03,12.10
2016,04,27,05,04,12.10
2016,04,27,05,05,12.10
2016,04,27,05,06,12.20
2016,04,27,05,07,12.20
2016,04,27,05,08,12.20
2016,04,27,05,09,12.20
2016,04,27,05,10,12.20
2016,04,27,05,11,12.20
2016,04,27,05,12,12.30
2016,04,27,05,13,12.30
2016,04,27,05,14,12.30
2016,04,27,05,15,12.30
2016,04,27,05,16,12.30
2016,04,27,05,17,12.30
2016,04,27,05,18,12.30
2016,04,27,05,19,12.40
2016,04,27,05,20,12.40
2016,04,27,05,21,12.40
2016,04,27,05,22,12.30
2016,04,27,05,23,12.30
2016,04,27,05,24,12.30
2016,04,27,05,25,12.30
2016,04,27,05,26,12.40
2016,04,27,05,27,12.40
2016,04,27,05,28,12.40
2016,04,27,05,29,12.40
2016,04,27,05,30,12.40
2016,04,27,05,31,12.40
2016,04,27,05,32,12.50
2016,04,27,05,33,12.50
2016,04,27,05,34,12.60
2016,04,27,05,35,12.60
2016,04,27,05,36,12.70
2016,04,27,05,37,12.70
2016,04,27,05,38,12.70
2016,04,27,05,39,12.80
2016,04,27,05,40,12.80
2016,04,27,05,41,12.90
2016,04,27,05,42,13.10
2016,04,27,05,43,13.10
2016,04,27,05,44,13.20
2016,04,27,05,45,13.10
2016,04,27,05,46,13.10
2016,04,27,05,47,13.10
2016,04,27,05,48,13.10
2016,04,27,05,49,13.10
2016,04,27,05,50,13.10
2016,04,27,05,51,13.00
2016,04,27,05,52,13.00
2016,04,27,05,53,13.00
2016,04,27,05,54,13.00
2016,04,27,05,55,13.10
2016,04,27,05,56,13.20
2016,04,27,05,57,13.30
2016,04,27,05,58,13.40
2016,04,27,05,59,13.50
2016,04,27,06,00,13.50
2016,04,27,06,01,13.60
2016,04,27,06,02,13.60
2016,04,27,06,03,13.70
2016,04,27,06,04,13.70
2016,04,27,06,05,13.70
2016,04,27,06,06,13.70
2016,04,27,06,07,13.70
2016,04,27,06,08,13.70
2016,04,27,06,09,13.70
2016,04,27,06,10,13.70
2016,04,27,06,11,13.60
2016,04,27,06,12,13.60
2016,04,27,06,13,13.60
2016,04,27,06,14,13.60
2016,04,27,06,15,13.60
2016,04,27,06,16,13.70
2016,04,27,06,17,13.70
2016,04,27,06,18,13.70
2016,04,27,06,19,13.70
2016,04,27,06,20,13.70
2016,04,27,06,21,13.70
2016,04,27,06,22,13.70
2016,04,27,06,23,13.70
2016,04,27,06,24,13.70
2016,04,27,06,25,13.70
2016,04,27,06,26,13.80
2016,04,27,06,27,13.90
2016,04,27,06,28,14.00
2016,04,27,06,29,14.10
2016,04,27,06,30,14.10
2016,04,27,06,31,14.10
2016,04,27,06,32,14.10
2016,04,27,06,33,14.10
2016,04,27,06,34,14.10
2016,04,27,06,35,14.10
2016,04,27,06,36,14.00
2016,04,27,06,37,13.90
2016,04,27,06,38,13.90
2016,04,27,06,39,13.90
2016,04,27,06,40,13.90
2016,04,27,06,41,13.90
2016,04,27,06,42,14.00
2016,04,27,06,43,13.90
2016,04,27,06,44,13.80
2016,04,27,06,45,13.70
2016,04,27,06,46,13.70
2016,04,27,06,47,13.70
2016,04,27,06,48,13.70
2016,04,27,06,49,13.80
2016,04,27,06,50,13.80
2016,04,27,06,51,13.80
2016,04,27,06,52,13.80
2016,04,27,06,53,13.90
2016,04,27,06,54,14.00
2016,04,27,06,55,14.10
2016,04,27,06,56,14.10
2016,04,27,06,57,14.20
2016,04,27,06,58,14.30
2016,04,27,06,59,14.30
2016,04,27,07,00,14.30
2016,04,27,07,01,14.30
2016,04,27,07,02,14.30
2016,04,27,07,03,14.30
2016,04,27,07,04,14.30
2016,04,27,07,05,14.40
2016,04,27,07,06,14.40
2016,04,27,07,07,14.50
2016,04,27,07,08,14.60
2016,04,27,07,09,14.70
2016,04,27,07,10,14.70
2016,04,27,07,11,14.70
2016,04,27,07,12,14.60
2016,04,27,07,13,14.50
2016,04,27,07,14,14.50
2016,04,27,07,15,14.40
2016,04,27,07,16,14.40
2016,04,27,07,17,14.40
2016,04,27,07,18,14.50
2016,04,27,07,19,14.50
2016,04,27,07,20,14.60
2016,04,27,07,21,14.60
2016,04,27,07,22,14.60
2016,04,27,07,23,14.70
2016,04,27,07,24,14.80
2016,04,27,07,25,14.90
2016,04,27,07,26,15.00
2016,04,27,07,27,15.10
2016,04,27,07,28,15.10
2016,04,27,07,29,15.10
2016,04,27,07,30,15.10
2016,04,27,07,31,15.10
2016,04,27,07,32,15.10
2016,04,27,07,33,15.10
2016,04,27,07,34,15.20
2016,04,27,07,35,15.20
2016,04,27,07,36,15.30
2016,04,27,07,37,15.40
2016,04,27,07,38,15.40
2016,04,27,07,39,15.50
2016,04,27,07,40,15.50
2016,04,27,07,41,15.60
2016,04,27,07,42,15.60
2016,04,27,07,43,15.60
2016,04,27,07,44,15.70
2016,04,27,07,45,15.70
2016,04,27,07,46,15.70
2016,04,27,07,47,15.70
2016,04,27,07,48,15.70
2016,04,27,07,49,15.70
2016,04,27,07,50,15.80
2016,04,27,07,51,15.90
2016,04,27,07,52,16.00
2016,04,27,07,53,16.00
2016,04,27,07,54,15.90
2016,04,27,07,55,15.80
2016,04,27,07,56,15.80
2016,04,27,07,57,15.80
2016,04,27,07,58,15.80
2016,04,27,07,59,15.90
2016,04,27,08,00,15.90
2016,04,27,08,01,16.00
2016,04,27,08,02,16.10
2016,04,27,08,03,16.10
2016,04,27,08,04,16.20
2016,04,27,08,05,16.10
2016,04,27,08,06,16.10
2016,04,27,08,07,16.10
2016,04,27,08,08,16.10
2016,04,27,08,09,16.10
2016,04,27,08,10,16.00
2016,04,27,08,11,16.00
2016,04,27,08,12,16.00
2016,04,27,08,13,16.10
2016,04,27,08,14,16.10
2016,04,27,08,15,16.20
2016,04,27,08,16,16.20
2016,04,27,08,17,16.20
2016,04,27,08,18,16.10
2016,04,27,08,19,16.20
2016,04,27,08,20,16.20
2016,04,27,08,21,16.20
2016,04,27,08,22,16.20
2016,04,27,08,23,16.10
2016,04,27,08,24,16.10
2016,04,27,08,25,16.10
2016,04,27,08,26,16.10
2016,04,27,08,27,16.10
2016,04,27,08,28,16.10
2016,04,27,08,29,16.10
2016,04,27,08,30,16.20
2016,04,27,08,31,16.30
2016,04,27,08,32,16.30
2016,04,27,08,33,16.20
2016,04,27,08,34,16.20
2016,04,27,08,35,16.20
2016,04,27,08,36,16.20
2016,04,27,08,37,16.20
2016,04,27,08,38,16.20
2016,04,27,08,39,16.10
2016,04,27,08,40,16.10
2016,04,27,08,41,16.10
2016,04,27,08,42,16.10
2016,04,27,08,43,16.10
2016,04,27,08,44,16.10
2016,04,27,08,45,16.10
2016,04,27,08,46,16.00
2016,04,27,08,47,16.00
2016,04,27,08,48,15.90
2016,04,27,08,49,15.90
2016,04,27,08,50,15.80
2016,04,27,08,51,15.80
2016,04,27,08,52,15.90
2016,04,27,08,53,16.00
2016,04,27,08,54,16.10
2016,04,27,08,55,16.20
2016,04,27,08,56,16.20
2016,04,27,08,57,16.20
2016,04,27,08,58,16.20
2016,04,27,08,59,16.30
2016,04,27,09,00,16.40
2016,04,27,09,01,16.50
2016,04,27,09,02,16.60
2016,04,27,09,03,16.60
2016,04,27,09,04,16.60
2016,04,27,09,05,16.50
2016,04,27,09,06,16.50
2016,04,27,09,07,16.50
2016,04,27,09,08,16.50
2016,04,27,09,09,16.60
2016,04,27,09,10,16.60
2016,04,27,09,11,16.50
2016,04,27,09,12,16.50
2016,04,27,09,13,16.50
2016,04,27,09,14,16.50
2016,04,27,09,15,16.50
2016,04,27,09,16,16.50
2016,04,27,09,17,16.60
2016,04,27,09,18,16.70
2016,04,27,09,19,16.70
2016,04,27,09,20,16.70
2016,04,27,09,21,16.70
2016,04,27,09,22,16.70
2016,04,27,09,23,16.70
2016,04,27,09,24,16.60
2016,04,27,09,25,16.60
2016,04,27,09,26,16.50
2016,04,27,09,27,16.60
2016,04,27,09,28,16.70
2016,04,27,09,29,16.80
2016,04,27,09,30,16.90
2016,04,27,09,31,17.00
2016,04,27,09,32,17.00
2016,04,27,09,33,17.00
2016,04,27,09,34,16.90
2016,04,27,09,35,16.90
2016,04,27,09,36,16.90
2016,04,27,09,37,16.90
2016,04,27,09,38,16.80
2016,04,27,09,39,16.80
2016,04,27,09,40,16.70
2016,04,27,09,41,16.70
2016,04,27,09,42,16.80
2016,04,27,09,43,16.80
2016,04,27,09,44,16.90
2016,04,27,09,45,16.90
2016,04,27,09,46,16.80
2016,04,27,09,47,16.70
2016,04,27,09,48,16.70
2016,04,27,09,49,16.60
2016,04,27,09,50,16.60
2016,04,27,09,51,16.60
2016,04,27,09,52,16.60
2016,04,27,09,53,16.60
2016,04,27,09,54,16.70
2016,04,27,09,55,16.80
2016,04,27,09,56,16.90
2016,04,27,09,57,17.00
2016,04,27,09,58,17.00
2016,04,27,09,59,17.10
2016,04,27,10,00,17.20
2016,04,27,10,01,17.30
2016,04,27,10,02,17.40
2016,04,27,10,03,17.40
2016,04,27,10,04,17.40
2016,04,27,10,05,17.40
2016,04,27,10,06,17.40
2016,04,27,10,07,17.40
2016,04,27,10,08,17.30
2016,04,27,10,09,17.20
2016,04,27,10,10,17.00
2016,04,27,10,11,16.90
2016,04,27,10,12,16.90
2016,04,27,10,13,17.00
2016,04,27,10,14,17.10
2016,04,27,10,15,17.20
2016,04,27,10,16,17.30
2016,04,27,10,17,17.30
2016,04,27,10,18,17.30
2016,04,27,10,19,17.30
2016,04,27,10,20,17.20
2016,04,27,10,21,17.20
2016,04,27,10,22,17.10
2016,04,27,10,23,17.10
2016,04,27,10,24,17.10
2016,04,27,10,25,17.20
2016,04,27,10,26,17.30
2016,04,27,10,27,17.40
2016,04,27,10,28,17.50
2016,04,27,10,29,17.50
2016,04,27,10,30,17.60
2016,04,27,10,31,17.60
2016,04,27,10,32,17.60
2016,04,27,10,33,17.50
2016,04,27,10,34,17.40
2016,04,27,10,35,17.30
2016,04,27,10,36,17.30
2016,04,27,10,37,17.30
2016,04,27,10,38,17.20
2016,04,27,10,39,17.20
2016,04,27,10,40,17.20
2016,04,27,10,41,17.30
2016,04,27,10,42,17.30
2016,04,27,10,43,17.30
2016,04,27,10,44,17.30
2016,04,27,10,45,17.20
2016,04,27,10,46,17.20
2016,04,27,10,47,17.20
2016,04,27,10,48,17.20
2016,04,27,10,49,17.20
2016,04,27,10,50,17.20
2016,04,27,10,51,17.20
2016,04,27,10,52,17.10
2016,04,27,10,53,17.00
2016,04,27,10,54,17.10
2016,04,27,10,55,17.10
2016,04,27,10,56,17.20
2016,04,27,10,57,17.30
2016,04,27,10,58,17.40
2016,04,27,10,59,17.40
2016,04,27,11,00,17.50
2016,04,27,11,01,17.50
2016,04,27,11,02,17.60
2016,04,27,11,03,17.70
2016,04,27,11,04,17.70
2016,04,27,11,05,17.70
2016,04,27,11,06,17.60
2016,04,27,11,07,17.60
2016,04,27,11,08,17.60
2016,04,27,11,09,17.60
2016,04,27,11,10,17.60
2016,04,27,11,11,17.60
2016,04,27,11,12,17.70
2016,04,27,11,13,17.70
2016,04,27,11,14,17.70
2016,04,27,11,15,17.80
2016,04,27,11,16,17.80
2016,04,27,11,17,17.80
2016,04,27,11,18,17.80
2016,04,27,11,19,17.80
2016,04,27,11,20,17.90
2016,04,27,11,21,17.90
2016,04,27,11,22,17.80
2016,04,27,11,23,17.80
2016,04,27,11,24,17.80
2016,04,27,11,25,17.80
2016,04,27,11,26,17.90
2016,04,27,11,27,17.90
2016,04,27,11,28,17.90
2016,04,27,11,29,17.80
2016,04,27,11,30,17.80
2016,04,27,11,31,17.80
2016,04,27,11,32,17.80
2016,04,27,11,33,17.70
2016,04,27,11,34,17.70
2016,04,27,11,35,17.70
2016,04,27,11,36,17.70
2016,04,27,11,37,17.80
2016,04,27,11,38,17.80
2016,04,27,11,39,17.80
2016,04,27,11,40,17.80
2016,04,27,11,41,17.80
2016,04,27,11,42,17.70
2016,04,27,11,43,17.60
2016,04,27,11,44,17.60
2016,04,27,11,45,17.50
2016,04,27,11,46,17.50
2016,04,27,11,47,17.50
2016,04,27,11,48,17.40
2016,04,27,11,49,17.40
2016,04,27,11,50,17.40
2016,04,27,11,51,17.40
2016,04,27,11,52,17.50
2016,04,27,11,53,17.50
2016,04,27,11,54,17.50
2016,04,27,11,55,17.50
2016,04,27,11,56,17.50
2016,04,27,11,57,17.50
2016,04,27,11,58,17.50
2016,04,27,11,59,17.40
2016,04,27,12,00,17.40
2016,04,27,12,01,17.50
2016,04,27,12,02,17.50
2016,04,27,12,03,17.60
2016,04,27,12,04,17.60
2016,04,27,12,05,17.70
2016,04,27,12,06,17.70
2016,04,27,12,07,17.70
2016,04,27,12,08,17.70
2016,04,27,12,09,17.70
2016,04,27,12,10,17.60
2016,04,27,12,11,17.60
2016,04,27,12,12,17.60
2016,04,27,12,13,17.60
2016,04,27,12,14,17.50
2016,04,27,12,15,17.50
2016,04,27,12,16,17.50
2016,04,27,12,17,17.40
2016,04,27,12,18,17.40
2016,04,27,12,19,17.40
2016,04,27,12,20,17.30
2016,04,27,12,21,17.30
2016,04,27,12,22,17.30
2016,04,27,12,23,17.30
2016,04,27,12,24,17.30
2016,04,27,12,25,17.30
2016,04,27,12,26,17.30
2016,04,27,12,27,17.30
2016,04,27,12,28,17.30
2016,04,27,12,29,17.30
2016,04,27,12,30,17.30
2016,04,27,12,31,17.30
2016,04,27,12,32,17.40
2016,04,27,12,33,17.40
2016,04,27,12,34,17.40
2016,04,27,12,35,17.40
2016,04,27,12,36,17.40
2016,04,27,12,37,17.40
2016,04,27,12,38,17.30
2016,04,27,12,39,17.30
2016,04,27,12,40,17.40
2016,04,27,12,41,17.40
2016,04,27,12,42,17.40
2016,04,27,12,43,17.40
2016,04,27,12,44,17.50
2016,04,27,12,45,17.50
2016,04,27,12,46,17.40
2016,04,27,12,47,17.40
2016,04,27,12,48,17.40
2016,04,27,12,49,17.40
2016,04,27,12,50,17.40
2016,04,27,12,51,17.40
2016,04,27,12,52,17.50
2016,04,27,12,53,17.50
2016,04,27,12,54,17.50
2016,04,27,12,55,17.50
2016,04,27,12,56,17.50
2016,04,27,12,57,17.40
2016,04,27,12,58,17.40
2016,04,27,12,59,17.40
2016,04,27,13,00,17.30
2016,04,27,13,01,17.30
2016,04,27,13,02,17.30
2016,04,27,13,03,17.30
2016,04,27,13,04,17.30
2016,04,27,13,05,17.30
2016,04,27,13,06,17.20
2016,04,27,13,07,17.20
2016,04,27,13,08,17.20
2016,04,27,13,09,17.20
2016,04,27,13,10,17.10
2016,04,27,13,11,17.10
2016,04,27,13,12,17.00
2016,04,27,13,13,17.00
2016,04,27,13,14,16.90
2016,04,27,13,15,16.80
2016,04,27,13,16,16.70
2016,04,27,13,17,16.50
2016,04,27,13,18,16.30
2016,04,27,13,19,16.20
2016,04,27,13,20,16.00
2016,04,27,13,21,15.80
2016,04,27,13,22,15.70
2016,04,27,13,23,15.60
2016,04,27,13,24,15.50
2016,04,27,13,25,15.40
2016,04,27,13,26,15.30
2016,04,27,13,27,15.20
2016,04,27,13,28,15.10
2016,04,27,13,29,14.90
2016,04,27,13,30,14.90
2016,04,27,13,31,14.80
2016,04,27,13,32,14.70
2016,04,27,13,33,14.60
2016,04,27,13,34,14.50
2016,04,27,13,35,14.40
2016,04,27,13,36,14.30
2016,04,27,13,37,14.20
2016,04,27,13,38,14.10
2016,04,27,13,39,13.90
2016,04,27,13,40,13.80
2016,04,27,13,41,13.60
2016,04,27,13,42,13.50
2016,04,27,13,43,13.40
2016,04,27,13,44,13.30
2016,04,27,13,45,13.20
2016,04,27,13,46,13.10
2016,04,27,13,47,13.10
2016,04,27,13,48,13.00
2016,04,27,13,49,13.00
2016,04,27,13,50,12.90
2016,04,27,13,51,12.90
2016,04,27,13,52,12.80
2016,04,27,13,53,12.80
2016,04,27,13,54,12.80
2016,04,27,13,55,12.70
2016,04,27,13,56,12.50
2016,04,27,13,57,12.30
2016,04,27,13,58,12.20
2016,04,27,13,59,12.10
2016,04,27,14,00,12.00
2016,04,27,14,01,11.90
2016,04,27,14,02,11.80
2016,04,27,14,03,11.80
2016,04,27,14,04,11.70
2016,04,27,14,05,11.70
2016,04,27,14,06,11.60
2016,04,27,14,07,11.60
2016,04,27,14,08,11.50
2016,04,27,14,09,11.50
2016,04,27,14,10,11.50
2016,04,27,14,11,11.40
2016,04,27,14,12,11.40
2016,04,27,14,13,11.40
2016,04,27,14,14,11.30
2016,04,27,14,15,11.30
2016,04,27,14,16,11.30
2016,04,27,14,17,11.30
2016,04,27,14,18,11.20
2016,04,27,14,19,11.20
2016,04,27,14,20,11.20
2016,04,27,14,21,11.10
2016,04,27,14,22,11.10
2016,04,27,14,23,11.00
2016,04,27,14,24,10.90
2016,04,27,14,25,10.80
2016,04,27,14,26,10.70
2016,04,27,14,27,10.70
2016,04,27,14,28,10.60
2016,04,27,14,29,10.60
2016,04,27,14,30,10.60
2016,04,27,14,31,10.50
2016,04,27,14,32,10.50
2016,04,27,14,33,10.40
2016,04,27,14,34,10.40
2016,04,27,14,35,10.40
2016,04,27,14,36,10.30
2016,04,27,14,37,10.30
2016,04,27,14,38,10.30
2016,04,27,14,39,10.20
2016,04,27,14,40,10.20
2016,04,27,14,41,10.20
2016,04,27,14,42,10.20
2016,04,27,14,43,10.10
2016,04,27,14,44,10.10
2016,04,27,14,45,10.10
2016,04,27,14,46,10.00
2016,04,27,14,47,10.00
2016,04,27,14,48,10.00
2016,04,27,14,49,9.90
2016,04,27,14,50,9.90
2016,04,27,14,51,9.90
2016,04,27,14,52,9.80
2016,04,27,14,53,9.80
2016,04,27,14,54,9.70
2016,04,27,14,55,9.70
2016,04,27,14,56,9.70
2016,04,27,14,57,9.60
2016,04,27,14,58,9.60
2016,04,27,14,59,9.50
2016,04,27,15,00,9.50
2016,04,27,15,01,9.40
2016,04,27,15,02,9.40
2016,04,27,15,03,9.30
2016,04,27,15,04,9.30
2016,04,27,15,05,9.30
2016,04,27,15,06,9.30
2016,04,27,15,07,9.20
2016,04,27,15,08,9.20
2016,04,27,15,09,9.20
2016,04,27,15,10,9.20
2016,04,27,15,11,9.10
2016,04,27,15,12,9.10
2016,04,27,15,13,9.10
2016,04,27,15,14,9.10
2016,04,27,15,15,9.10
2016,04,27,15,16,9.00
2016,04,27,15,17,9.00
2016,04,27,15,18,9.00
2016,04,27,15,19,8.90
2016,04,27,15,20,8.90
2016,04,27,15,21,8.90
2016,04,27,15,22,8.80
2016,04,27,15,23,8.80
2016,04,27,15,24,8.80
2016,04,27,15,25,8.80
2016,04,27,15,26,8.70
2016,04,27,15,27,8.70
2016,04,27,15,28,8.70
2016,04,27,15,29,8.70
2016,04,27,15,30,8.60
2016,04,27,15,31,8.60
2016,04,27,15,32,8.60
2016,04,27,15,33,8.60
2016,04,27,15,34,8.50
2016,04,27,15,35,8.50
2016,04,27,15,36,8.50
2016,04,27,15,37,8.40
2016,04,27,15,38,8.40
2016,04,27,15,39,8.40
2016,04,27,15,40,8.40
2016,04,27,15,41,8.30
2016,04,27,15,42,8.30
2016,04,27,15,43,8.30
2016,04,27,15,44,8.20
2016,04,27,15,45,8.20
2016,04,27,15,46,8.20
2016,04,27,15,47,8.20
2016,04,27,15,48,8.20
2016,04,27,15,49,8.10
2016,04,27,15,50,8.10
2016,04,27,15,51,8.10
2016,04,27,15,52,8.10
2016,04,27,15,53,8.10
2016,04,27,15,54,8.10
2016,04,27,15,55,8.10
2016,04,27,15,56,8.00
2016,04,27,15,57,8.00
2016,04,27,15,58,8.00
2016,04,27,15,59,7.90
2016,04,27,16,00,7.90
2016,04,27,16,01,7.90
2016,04,27,16,02,7.90
2016,04,27,16,03,7.90
2016,04,27,16,04,7.80
2016,04,27,16,05,7.80
2016,04,27,16,06,7.80
2016,04,27,16,07,7.70
2016,04,27,16,08,7.70
2016,04,27,16,09,7.70
2016,04,27,16,10,7.70
2016,04,27,16,11,7.60
2016,04,27,16,12,7.60
2016,04,27,16,13,7.60
2016,04,27,16,14,7.50
2016,04,27,16,15,7.50
2016,04,27,16,16,7.50
2016,04,27,16,17,7.40
2016,04,27,16,18,7.40
2016,04,27,16,19,7.40
2016,04,27,16,20,7.40
2016,04,27,16,21,7.40
2016,04,27,16,22,7.30
2016,04,27,16,23,7.30
2016,04,27,16,24,7.30
2016,04,27,16,25,7.30
2016,04,27,16,26,7.30
2016,04,27,16,27,7.30
2016,04,27,16,28,7.20
2016,04,27,16,29,7.20
2016,04,27,16,30,7.20
2016,04,27,16,31,7.20
2016,04,27,16,32,7.20
2016,04,27,16,33,7.20
2016,04,27,16,34,7.20
2016,04,27,16,35,7.20
2016,04,27,16,36,7.20
2016,04,27,16,37,7.10
2016,04,27,16,38,7.10
2016,04,27,16,39,7.10
2016,04,27,16,40,7.10
2016,04,27,16,41,7.00
2016,04,27,16,42,6.90
2016,04,27,16,43,6.90
2016,04,27,16,44,6.90
2016,04,27,16,45,6.80
2016,04,27,16,46,6.80
2016,04,27,16,47,6.80
2016,04,27,16,48,6.80
2016,04,27,16,49,6.70
2016,04,27,16,50,6.70
2016,04,27,16,51,6.70
2016,04,27,16,52,6.70
2016,04,27,16,53,6.70
2016,04,27,16,54,6.70
2016,04,27,16,55,6.60
2016,04,27,16,56,6.60
2016,04,27,16,57,6.60
2016,04,27,16,58,6.60
2016,04,27,16,59,6.60
2016,04,27,17,00,6.60
2016,04,27,17,01,6.60
2016,04,27,17,02,6.60
2016,04,27,17,03,6.60
2016,04,27,17,04,6.50
2016,04,27,17,05,6.50
2016,04,27,17,06,6.50
2016,04,27,17,07,6.40
2016,04,27,17,08,6.40
2016,04,27,17,09,6.40
2016,04,27,17,10,6.40
2016,04,27,17,11,6.40
2016,04,27,17,12,6.40
2016,04,27,17,13,6.40
2016,04,27,17,14,6.40
2016,04,27,17,15,6.40
2016,04,27,17,16,6.40
2016,04,27,17,17,6.30
2016,04,27,17,18,6.30
2016,04,27,17,19,6.30
2016,04,27,17,20,6.30
2016,04,27,17,21,6.30
2016,04,27,17,22,6.30
2016,04,27,17,23,6.30
2016,04,27,17,24,6.20
2016,04,27,17,25,6.20
2016,04,27,17,26,6.20
2016,04,27,17,27,6.10
2016,04,27,17,28,6.10
2016,04,27,17,29,6.00
2016,04,27,17,30,6.00
2016,04,27,17,31,5.90
2016,04,27,17,32,5.90
2016,04,27,17,33,5.80